QPF
0.04 0.04 0.03 0.03 0.02 0.02 0.02 0.02 0.01 0.01 0.01 0.02 0.02 0.01 0.00 0.00 0.00 0.00 0.00 0.00 0.00 0.01 0.01 0.00 0.01 0.01 0.03 0.04 0.03 0.03 0.04 0.05 0.05 0.04 0.03 0.02 0.01 0.02 0.02 0.03 0.01 0.00 0.00
0.02 0.03 0.04 0.04 0.02 0.03 0.04 0.02 0.02 0.01 0.01 0.01 0.01 0.00 0.00 0.01 0.01 0.01 0.01 0.01 0.01 0.01 0.01 0.00 0.00 0.01 0.01 0.03 0.03 0.03 0.02 0.03 0.04 0.04 0.03 0.01 0.01 0.01 0.03 0.04 0.03 0.01 0.00
0.02 0.03 0.03 0.04 0.04 0.04 0.05 0.08 0.04 0.02 0.02 0.02 0.01 0.01 0.01 0.01 0.02 0.03 0.02 0.01 0.01 0.01 0.01 0.01 0.01 0.01 0.01 0.02 0.02 0.03 0.02 0.02 0.04 0.04 0.03 0.02 0.01 0.01 0.02 0.02 0.03 0.02 0.01
0.03 0.02 0.03 0.03 0.03 0.03 0.02 0.05 0.05 0.03 0.02 0.02 0.02 0.02 0.02 0.02 0.02 0.02 0.02 0.02 0.02 0.02 0.02 0.02 0.02 0.02 0.02 0.02 0.02 0.03 0.03 0.03 0.03 0.03 0.02 0.02 0.03 0.02 0.02 0.02 0.02 0.03 0.01
0.02 0.03 0.03 0.03 0.03 0.02 0.02 0.02 0.03 0.04 0.03 0.01 0.01 0.01 0.01 0.01 0.01 0.02 0.02 0.02 0.02 0.03 0.02 0.02 0.02 0.03 0.02 0.03 0.03 0.03 0.04 0.04 0.03 0.03 0.02 0.03 0.03 0.03 0.02 0.02 0.02 0.02 0.02
0.01 0.03 0.04 0.03 0.02 0.02 0.02 0.02 0.01 0.02 0.02 0.02 0.02 0.01 0.01 0.01 0.02 0.03 0.03 0.03 0.02 0.02 0.02 0.01 0.02 0.02 0.02 0.02 0.03 0.03 0.03 0.04 0.04 0.04 0.03 0.03 0.03 0.04 0.04 0.03 0.03 0.03 0.03
0.02 0.01 0.02 0.02 0.02 0.02 0.02 0.02 0.01 0.01 0.01 0.02 0.02 0.02 0.01 0.01 0.02 0.03 0.03 0.03 0.03 0.02 0.02 0.02 0.02 0.02 0.02 0.02 0.02 0.03 0.04 0.03 0.03 0.02 0.02 0.02 0.03 0.05 0.05 0.04 0.03 0.02 0.02
0.01 0.01 0.01 0.01 0.01 0.02 0.01 0.02 0.02 0.01 0.02 0.02 0.02 0.01 0.02 0.01 0.03 0.03 0.03 0.03 0.02 0.02 0.01 0.02 0.02 0.01 0.02 0.02 0.03 0.04 0.05 0.04 0.02 0.02 0.02 0.02 0.02 0.04 0.05 0.04 0.04 0.02 0.01
0.01 0.01 0.01 0.02 0.01 0.02 0.01 0.01 0.02 0.02 0.02 0.02 0.01 0.01 0.01 0.01 0.03 0.03 0.03 0.03 0.02 0.01 0.01 0.01 0.01 0.01 0.01 0.02 0.03 0.04 0.05 0.05 0.04 0.03 0.02 0.02 0.03 0.03 0.04 0.04 0.03 0.03 0.02
0.01 0.01 0.01 0.01 0.02 0.02 0.03 0.02 0.02 0.02 0.02 0.01 0.01 0.01 0.01 0.01 0.02 0.03 0.03 0.02 0.01 0.01 0.01 0.01 0.01 0.01 0.01 0.02 0.03 0.04 0.04 0.05 0.05 0.05 0.03 0.03 0.03 0.03 0.03 0.03 0.03 0.03 0.02
0.01 0.02 0.02 0.01 0.01 0.02 0.04 0.04 0.04 0.04 0.03 0.02 0.01 0.01 0.01 0.01 0.02 0.03 0.03 0.02 0.01 0.01 0.01 0.01 0.01 0.01 0.01 0.02 0.03 0.03 0.03 0.04 0.05 0.05 0.03 0.03 0.02 0.02 0.02 0.02 0.02 0.03 0.03
0.02 0.02 0.03 0.03 0.04 0.04 0.03 0.03 0.03 0.03 0.03 0.03 0.03 0.02 0.01 0.01 0.01 0.02 0.03 0.03 0.03 0.02 0.01 0.01 0.01 0.02 0.02 0.02 0.03 0.04 0.04 0.04 0.04 0.04 0.04 0.03 0.03 0.02 0.02 0.02 0.02 0.02 0.02
0.01 0.01 0.02 0.02 0.02 0.02 0.03 0.02 0.02 0.02 0.02 0.02 0.02 0.02 0.02 0.02 0.02 0.02 0.03 0.03 0.04 0.03 0.02 0.02 0.02 0.01 0.02 0.02 0.02 0.03 0.03 0.04 0.05 0.05 0.04 0.04 0.03 0.03 0.03 0.03 0.03 0.02 0.02
0.01 0.01 0.02 0.02 0.02 0.01 0.02 0.02 0.02 0.02 0.01 0.01 0.01 0.01 0.01 0.01 0.02 0.02 0.02 0.02 0.03 0.03 0.03 0.03 0.03 0.03 0.03 0.02 0.02 0.02 0.02 0.03 0.04 0.04 0.03 0.03 0.03 0.03 0.04 0.04 0.04 0.03 0.03
0.01 0.01 0.01 0.02 0.02 0.02 0.02 0.02 0.02 0.01 0.02 0.02 0.01 0.01 0.01 0.01 0.01 0.02 0.02 0.02 0.02 0.02 0.03 0.03 0.03 0.03 0.04 0.03 0.02 0.02 0.02 0.03 0.03 0.04 0.03 0.03 0.03 0.03 0.03 0.03 0.03 0.04 0.04
0.01 0.01 0.01 0.01 0.01 0.02 0.02 0.02 0.02 0.03 0.03 0.03 0.03 0.02 0.01 0.01 0.01 0.01 0.01 0.01 0.01 0.02 0.02 0.03 0.04 0.05 0.04 0.03 0.02 0.02 0.02 0.03 0.03 0.03 0.03 0.02 0.02 0.02 0.02 0.03 0.03 0.04 0.04
0.01 0.01 0.01 0.01 0.02 0.02 0.02 0.03 0.03 0.02 0.03 0.03 0.03 0.02 0.02 0.02 0.01 0.01 0.01 0.01 0.01 0.01 0.02 0.02 0.03 0.04 0.04 0.03 0.03 0.03 0.03 0.03 0.03 0.03 0.03 0.02 0.02 0.02 0.02 0.02 0.02 0.02 0.02
0.01 0.02 0.02 0.02 0.02 0.03 0.03 0.03 0.03 0.03 0.03 0.03 0.03 0.03 0.02 0.02 0.02 0.02 0.02 0.02 0.02 0.01 0.01 0.02 0.03 0.03 0.04 0.04 0.04 0.04 0.03 0.03 0.03 0.02 0.02 0.02 0.02 0.02 0.02 0.02 0.02 0.02 0.02
0.01 0.02 0.03 0.03 0.03 0.04 0.04 0.03 0.04 0.04 0.04 0.04 0.03 0.03 0.02 0.02 0.02 0.02 0.02 0.02 0.02 0.02 0.02 0.02 0.03 0.03 0.04 0.05 0.05 0.05 0.04 0.03 0.02 0.02 0.02 0.02 0.02 0.02 0.02 0.02 0.02 0.02 0.02
0.01 0.02 0.03 0.04 0.04 0.04 0.04 0.04 0.05 0.05 0.04 0.04 0.04 0.03 0.03 0.02 0.02 0.01 0.01 0.02 0.02 0.01 0.01 0.02 0.03 0.04 0.04 0.05 0.05 0.06 0.05 0.04 0.03 0.02 0.02 0.02 0.02 0.02 0.02 0.02 0.03 0.02 0.02
0.01 0.02 0.03 0.03 0.04 0.05 0.05 0.05 0.04 0.04 0.04 0.04 0.03 0.03 0.03 0.03 0.03 0.02 0.01 0.01 0.01 0.02 0.02 0.02 0.03 0.04 0.05 0.05 0.05 0.05 0.06 0.06 0.04 0.03 0.02 0.02 0.02 0.02 0.02 0.02 0.03 0.02 0.02
0.02 0.03 0.03 0.03 0.04 0.05 0.06 0.06 0.05 0.04 0.04 0.03 0.03 0.03 0.03 0.03 0.03 0.03 0.03 0.02 0.03 0.03 0.02 0.03 0.04 0.04 0.05 0.05 0.06 0.06 0.07 0.06 0.06 0.05 0.04 0.03 0.02 0.02 0.02 0.02 0.02 0.02 0.02
0.04 0.04 0.04 0.03 0.03 0.04 0.06 0.07 0.07 0.06 0.06 0.05 0.04 0.03 0.02 0.02 0.02 0.02 0.03 0.03 0.03 0.03 0.03 0.04 0.05 0.04 0.04 0.05 0.05 0.06 0.08 0.08 0.07 0.05 0.04 0.03 0.03 0.02 0.02 0.02 0.02 0.01 0.01
0.04 0.05 0.05 0.04 0.03 0.03 0.04 0.06 0.07 0.07 0.07 0.06 0.05 0.04 0.04 0.03 0.03 0.03 0.03 0.04 0.06 0.05 0.04 0.04 0.05 0.04 0.03 0.04 0.04 0.04 0.05 0.06 0.07 0.05 0.04 0.03 0.03 0.03 0.02 0.02 0.02 0.02 0.02
0.03 0.03 0.04 0.04 0.04 0.03 0.03 0.04 0.04 0.05 0.06 0.06 0.06 0.06 0.05 0.04 0.04 0.04 0.05 0.06 0.06 0.06 0.07 0.07 0.06 0.05 0.04 0.04 0.04 0.03 0.03 0.04 0.04 0.04 0.04 0.04 0.04 0.04 0.04 0.03 0.03 0.03 0.02
0.05 0.05 0.05 0.05 0.04 0.04 0.03 0.03 0.04 0.05 0.05 0.05 0.05 0.05 0.05 0.04 0.04 0.04 0.05 0.06 0.05 0.05 0.06 0.06 0.06 0.06 0.05 0.05 0.05 0.04 0.04 0.04 0.03 0.03 0.04 0.05 0.05 0.05 0.04 0.03 0.02 0.02 0.02
MSLP
1012.84 1012.77 1012.72 1012.67 1012.59 1012.47 1012.33 1012.17 1012.02 1011.90 1011.81 1011.77 1011.78 1011.80 1011.84 1011.89 1011.94 1011.99 1012.04 1012.12 1012.22 1012.32 1012.43 1012.51 1012.55 1012.51 1012.40 1012.20 1011.96 1011.70 1011.48 1011.34 1011.32 1011.46 1011.75 1012.19 1012.73 1013.34 1013.95 1014.54 1015.07 1015.53 1015.93
1012.13 1012.01 1011.91 1011.83 1011.72 1011.60 1011.46 1011.31 1011.18 1011.07 1010.99 1010.95 1010.93 1010.95 1010.98 1011.02 1011.07 1011.14 1011.24 1011.36 1011.51 1011.67 1011.83 1011.94 1012.00 1011.97 1011.85 1011.63 1011.36 1011.06 1010.81 1010.65 1010.62 1010.76 1011.07 1011.54 1012.12 1012.78 1013.45 1014.09 1014.68 1015.21 1015.65
1011.44 1011.26 1011.11 1010.97 1010.82 1010.67 1010.52 1010.38 1010.25 1010.15 1010.08 1010.04 1010.03 1010.04 1010.07 1010.11 1010.18 1010.27 1010.40 1010.57 1010.76 1010.98 1011.18 1011.33 1011.42 1011.40 1011.27 1011.04 1010.75 1010.43 1010.15 1009.96 1009.92 1010.05 1010.37 1010.85 1011.47 1012.16 1012.88 1013.58 1014.22 1014.79 1015.28
1010.80 1010.55 1010.33 1010.13 1009.93 1009.74 1009.57 1009.41 1009.29 1009.20 1009.14 1009.11 1009.10 1009.11 1009.13 1009.18 1009.25 1009.36 1009.52 1009.72 1009.96 1010.22 1010.46 1010.66 1010.78 1010.78 1010.67 1010.44 1010.14 1009.81 1009.51 1009.31 1009.25 1009.37 1009.68 1010.17 1010.80 1011.51 1012.26 1013.00 1013.69 1014.30 1014.83
1010.21 1009.90 1009.60 1009.32 1009.06 1008.82 1008.62 1008.45 1008.32 1008.24 1008.19 1008.16 1008.15 1008.16 1008.18 1008.22 1008.29 1008.40 1008.57 1008.80 1009.07 1009.36 1009.65 1009.89 1010.05 1010.09 1010.01 1009.80 1009.52 1009.19 1008.90 1008.69 1008.62 1008.73 1009.03 1009.51 1010.13 1010.86 1011.63 1012.39 1013.11 1013.75 1014.32
1009.65 1009.27 1008.91 1008.55 1008.23 1007.95 1007.71 1007.52 1007.39 1007.30 1007.25 1007.22 1007.20 1007.19 1007.20 1007.22 1007.27 1007.37 1007.53 1007.76 1008.05 1008.37 1008.70 1008.98 1009.19 1009.29 1009.26 1009.11 1008.86 1008.57 1008.29 1008.09 1008.02 1008.12 1008.41 1008.87 1009.49 1010.21 1010.99 1011.76 1012.50 1013.17 1013.77
1009.11 1008.67 1008.24 1007.82 1007.45 1007.12 1006.85 1006.64 1006.49 1006.39 1006.32 1006.28 1006.24 1006.20 1006.16 1006.14 1006.16 1006.22 1006.36 1006.58 1006.88 1007.22 1007.58 1007.92 1008.19 1008.35 1008.40 1008.32 1008.14 1007.90 1007.67 1007.50 1007.44 1007.55 1007.82 1008.27 1008.87 1009.58 1010.35 1011.13 1011.89 1012.58 1013.20
1008.54 1008.05 1007.57 1007.11 1006.69 1006.32 1006.02 1005.79 1005.61 1005.48 1005.38 1005.30 1005.21 1005.12 1005.03 1004.96 1004.92 1004.95 1005.05 1005.26 1005.55 1005.91 1006.31 1006.70 1007.03 1007.28 1007.41 1007.43 1007.34 1007.18 1007.02 1006.90 1006.87 1006.99 1007.26 1007.70 1008.28 1008.98 1009.74 1010.52 1011.28 1011.99 1012.63
1007.91 1007.39 1006.87 1006.38 1005.92 1005.52 1005.19 1004.91 1004.70 1004.52 1004.37 1004.22 1004.07 1003.92 1003.76 1003.63 1003.54 1003.52 1003.60 1003.79 1004.09 1004.47 1004.91 1005.35 1005.77 1006.10 1006.34 1006.45 1006.47 1006.41 1006.33 1006.27 1006.29 1006.43 1006.72 1007.15 1007.73 1008.41 1009.16 1009.93 1010.70 1011.42 1012.08
1007.22 1006.67 1006.13 1005.61 1005.13 1004.69 1004.31 1003.98 1003.69 1003.44 1003.21 1002.99 1002.76 1002.54 1002.32 1002.13 1002.00 1001.96 1002.03 1002.22 1002.54 1002.96 1003.44 1003.95 1004.45 1004.87 1005.21 1005.43 1005.55 1005.60 1005.61 1005.63 1005.71 1005.89 1006.20 1006.64 1007.21 1007.88 1008.62 1009.39 1010.16 1010.90 1011.57
1006.46 1005.90 1005.35 1004.80 1004.28 1003.79 1003.34 1002.93 1002.55 1002.20 1001.87 1001.55 1001.24 1000.95 1000.68 1000.47 1000.33 1000.29 1000.39 1000.61 1000.97 1001.44 1001.99 1002.57 1003.14 1003.66 1004.08 1004.41 1004.63 1004.78 1004.89 1004.99 1005.14 1005.37 1005.71 1006.17 1006.75 1007.41 1008.15 1008.92 1009.69 1010.44 1011.13
1005.67 1005.10 1004.53 1003.96 1003.39 1002.82 1002.27 1001.75 1001.25 1000.78 1000.33 999.90 999.51 999.17 998.88 998.67 998.56 998.58 998.73 999.03 999.47 1000.01 1000.63 1001.28 1001.92 1002.51 1003.01 1003.42 1003.74 1003.98 1004.18 1004.37 1004.59 1004.88 1005.27 1005.76 1006.35 1007.03 1007.77 1008.54 1009.32 1010.07 1010.78
1004.89 1004.32 1003.72 1003.10 1002.45 1001.79 1001.11 1000.45 999.80 999.18 998.60 998.07 997.62 997.24 996.96 996.80 996.77 996.88 997.14 997.55 998.08 998.71 999.41 1000.12 1000.82 1001.46 1002.03 1002.50 1002.88 1003.20 1003.48 1003.76 1004.06 1004.43 1004.87 1005.41 1006.04 1006.74 1007.49 1008.28 1009.06 1009.82 1010.54
1004.18 1003.59 1002.95 1002.26 1001.52 1000.72 999.90 999.06 998.25 997.47 996.77 996.15 995.64 995.27 995.04 994.96 995.05 995.30 995.70 996.23 996.88 997.60 998.36 999.12 999.85 1000.52 1001.11 1001.62 1002.06 1002.44 1002.80 1003.15 1003.54 1003.99 1004.51 1005.11 1005.79 1006.54 1007.32 1008.12 1008.92 1009.70 1010.42
1003.58 1002.96 1002.27 1001.49 1000.62 999.67 998.68 997.67 996.68 995.76 994.93 994.24 993.71 993.37 993.22 993.27 993.50 993.90 994.45 995.13 995.88 996.68 997.49 998.27 999.00 999.67 1000.26 1000.78 1001.24 1001.67 1002.09 1002.53 1003.01 1003.55 1004.17 1004.85 1005.60 1006.40 1007.23 1008.07 1008.89 1009.68 1010.41
1003.11 1002.45 1001.68 1000.80 999.80 998.70 997.53 996.35 995.20 994.15 993.23 992.48 991.97 991.68 991.63 991.81 992.20 992.76 993.46 994.25 995.10 995.95 996.77 997.54 998.24 998.87 999.42 999.92 1000.39 1000.85 1001.33 1001.85 1002.43 1003.08 1003.80 1004.59 1005.43 1006.30 1007.19 1008.06 1008.91 1009.72 1010.47
1002.78 1002.06 1001.21 1000.22 999.08 997.83 996.51 995.18 993.90 992.74 991.75 990.99 990.51 990.29 990.36 990.67 991.20 991.90 992.72 993.60 994.49 995.35 996.15 996.88 997.51 998.07 998.57 999.03 999.49 999.98 1000.51 1001.12 1001.80 1002.56 1003.40 1004.30 1005.24 1006.19 1007.14 1008.06 1008.95 1009.77 1010.54
1002.56 1001.78 1000.84 999.74 998.48 997.10 995.66 994.21 992.83 991.60 990.58 989.83 989.39 989.25 989.42 989.85 990.50 991.30 992.19 993.12 994.02 994.86 995.60 996.24 996.78 997.25 997.68 998.10 998.55 999.06 999.65 1000.33 1001.12 1002.00 1002.95 1003.97 1005.00 1006.03 1007.05 1008.02 1008.93 1009.78 1010.55
1002.43 1001.58 1000.56 999.36 998.00 996.52 994.98 993.45 992.01 990.75 989.73 989.00 988.61 988.55 988.80 989.32 990.04 990.90 991.83 992.75 993.62 994.39 995.05 995.59 996.04 996.42 996.78 997.16 997.60 998.13 998.78 999.55 1000.43 1001.42 1002.49 1003.60 1004.72 1005.83 1006.90 1007.91 1008.84 1009.70 1010.48
1002.36 1001.44 1000.34 999.06 997.63 996.08 994.48 992.91 991.44 990.18 989.17 988.48 988.14 988.13 988.44 989.00 989.75 990.63 991.54 992.43 993.23 993.92 994.49 994.93 995.29 995.59 995.90 996.25 996.70 997.26 997.97 998.82 999.80 1000.88 1002.04 1003.24 1004.43 1005.59 1006.70 1007.73 1008.68 1009.54 1010.32
1002.33 1001.35 1000.18 998.84 997.35 995.76 994.13 992.55 991.09 989.83 988.85 988.19 987.88 987.90 988.23 988.79 989.54 990.39 991.26 992.08 992.81 993.42 993.90 994.27 994.56 994.83 995.11 995.47 995.93 996.55 997.31 998.23 999.29 1000.45 1001.68 1002.93 1004.17 1005.36 1006.49 1007.52 1008.47 1009.32 1010.10
1002.36 1001.31 1000.10 998.71 997.19 995.58 993.94 992.36 990.91 989.67 988.71 988.06 987.75 987.77 988.08 988.62 989.32 990.11 990.92 991.67 992.34 992.88 993.31 993.65 993.92 994.18 994.48 994.87 995.39 996.06 996.88 997.86 998.98 1000.18 1001.45 1002.73 1003.99 1005.19 1006.31 1007.33 1008.27 1009.11 1009.87
1002.47 1001.38 1000.12 998.71 997.16 995.54 993.91 992.33 990.89 989.66 988.70 988.04 987.71 987.69 987.95 988.42 989.05 989.77 990.51 991.20 991.82 992.34 992.76 993.11 993.42 993.72 994.08 994.54 995.12 995.85 996.74 997.76 998.90 1000.13 1001.40 1002.68 1003.92 1005.10 1006.20 1007.20 1008.12 1008.94 1009.69
1002.70 1001.58 1000.29 998.86 997.31 995.68 994.05 992.48 991.05 989.81 988.82 988.13 987.74 987.65 987.82 988.21 988.75 989.39 990.07 990.72 991.32 991.85 992.31 992.71 993.10 993.49 993.95 994.49 995.15 995.95 996.87 997.92 999.07 1000.28 1001.52 1002.76 1003.97 1005.11 1006.17 1007.15 1008.05 1008.86 1009.60
1003.08 1001.94 1000.65 999.21 997.66 996.05 994.42 992.85 991.40 990.14 989.11 988.35 987.88 987.69 987.76 988.04 988.49 989.05 989.66 990.29 990.90 991.47 992.00 992.50 992.99 993.51 994.07 994.72 995.46 996.31 997.26 998.31 999.43 1000.60 1001.79 1002.97 1004.11 1005.20 1006.22 1007.17 1008.05 1008.86 1009.61
1003.63 1002.50 1001.22 999.80 998.27 996.67 995.05 993.48 992.01 990.71 989.62 988.77 988.20 987.90 987.84 988.01 988.35 988.83 989.39 990.01 990.64 991.27 991.88 992.50 993.11 993.75 994.43 995.18 995.99 996.87 997.83 998.85 999.92 1001.02 1002.13 1003.22 1004.29 1005.31 1006.29 1007.21 1008.08 1008.90 1009.66
Thickness
5681 5679 5677 5674 5673 5671 5668 5666 5664 5662 5661 5659 5658 5656 5655 5655 5654 5652 5650 5650 5649 5648 5648 5647 5646 5647 5645 5645 5645 5645 5645 5644 5641 5642 5644 5645 5644 5644 5643 5642 5641 5640 5639
5677 5674 5671 5669 5667 5664 5662 5661 5660 5658 5657 5655 5653 5652 5651 5650 5649 5647 5645 5644 5643 5642 5642 5641 5641 5641 5640 5640 5640 5639 5639 5640 5638 5636 5636 5637 5638 5639 5638 5637 5636 5636 5635
5672 5668 5665 5662 5660 5658 5656 5655 5653 5652 5651 5650 5648 5646 5645 5645 5644 5642 5640 5639 5638 5637 5637 5636 5636 5635 5634 5634 5634 5633 5634 5635 5634 5631 5630 5631 5632 5633 5632 5632 5631 5630 5630
5665 5661 5658 5656 5654 5652 5650 5648 5646 5646 5644 5643 5642 5641 5640 5640 5639 5637 5635 5634 5633 5632 5632 5631 5631 5630 5629 5628 5628 5627 5627 5627 5627 5625 5624 5624 5624 5626 5625 5624 5623 5623 5623
5659 5655 5652 5651 5648 5646 5644 5642 5640 5639 5638 5637 5636 5635 5634 5633 5633 5631 5629 5628 5627 5626 5625 5625 5625 5625 5625 5624 5623 5621 5620 5619 5618 5618 5617 5616 5616 5616 5617 5618 5616 5616 5617
5653 5649 5647 5644 5642 5639 5637 5636 5633 5632 5631 5630 5629 5628 5627 5627 5626 5625 5623 5622 5620 5619 5618 5618 5618 5618 5618 5618 5617 5617 5616 5613 5611 5610 5610 5609 5610 5610 5611 5612 5610 5609 5607
5646 5643 5640 5637 5635 5632 5631 5628 5626 5625 5624 5622 5622 5620 5619 5619 5618 5617 5616 5614 5613 5612 5611 5611 5612 5612 5611 5610 5609 5609 5609 5608 5607 5606 5604 5604 5605 5606 5605 5604 5604 5602 5602
5639 5635 5633 5630 5627 5625 5623 5620 5619 5618 5616 5615 5614 5613 5611 5611 5611 5610 5608 5606 5605 5605 5604 5604 5603 5603 5603 5602 5602 5601 5601 5601 5600 5600 5600 5600 5601 5601 5600 5599 5598 5597 5597
5631 5628 5626 5624 5621 5618 5615 5613 5612 5610 5608 5607 5607 5605 5604 5603 5603 5602 5600 5598 5597 5596 5596 5596 5596 5595 5596 5595 5594 5593 5593 5593 5593 5593 5593 5593 5593 5594 5594 5591 5589 5588 5587
5624 5622 5619 5617 5614 5611 5609 5607 5605 5603 5601 5600 5599 5598 5597 5596 5595 5594 5592 5590 5588 5587 5588 5588 5588 5587 5587 5587 5586 5584 5583 5585 5585 5585 5585 5585 5585 5586 5586 5585 5583 5580 5579
5618 5615 5612 5610 5607 5605 5602 5600 5598 5596 5593 5592 5591 5590 5589 5588 5587 5585 5583 5580 5579 5578 5578 5578 5578 5579 5579 5578 5578 5577 5577 5578 5578 5578 5577 5577 5577 5578 5578 5578 5578 5576 5573
5611 5607 5604 5602 5601 5599 5595 5592 5590 5587 5585 5583 5582 5581 5581 5580 5579 5577 5575 5573 5572 5570 5570 5570 5570 5570 5570 5570 5569 5570 5570 5570 5570 5571 5570 5569 5569 5569 5569 5570 5570 5570 5569
5603 5599 5597 5595 5593 5591 5587 5584 5582 5579 5577 5575 5574 5572 5572 5571 5569 5568 5566 5565 5563 5562 5562 5562 5562 5561 5560 5560 5561 5562 5562 5562 5562 5562 5562 5562 5562 5562 5561 5561 5561 5561 5561
5595 5591 5589 5587 5584 5582 5580 5577 5574 5571 5569 5567 5565 5563 5562 5561 5559 5558 5556 5554 5553 5552 5551 5552 5552 5552 5551 5551 5552 5552 5553 5554 5554 5554 5554 5554 5554 5553 5552 5553 5551 5551 5549
5587 5584 5581 5578 5575 5573 5571 5569 5567 5565 5562 5560 5557 5555 5553 5551 5551 5550 5548 5546 5545 5544 5542 5541 5541 5541 5542 5542 5543 5544 5544 5545 5546 5546 5546 5545 5545 5544 5544 5544 5542 5542 5540
5578 5576 5572 5569 5566 5564 5561 5559 5558 5557 5556 5554 5552 5548 5546 5545 5543 5542 5540 5539 5538 5537 5534 5534 5534 5535 5535 5536 5536 5536 5536 5537 5538 5538 5538 5537 5537 5536 5535 5535 5534 5533 5532
5570 5567 5563 5560 5557 5554 5552 5550 5548 5547 5546 5545 5543 5540 5538 5536 5535 5533 5532 5530 5529 5528 5527 5528 5529 5529 5530 5530 5530 5529 5529 5530 5530 5530 5529 5529 5529 5529 5528 5526 5525 5524 5523
5561 5558 5555 5551 5548 5546 5543 5541 5540 5538 5536 5534 5533 5532 5530 5528 5526 5524 5523 5521 5520 5520 5520 5521 5522 5523 5523 5523 5523 5523 5523 5523 5522 5522 5521 5521 5520 5520 5519 5518 5516 5515 5514
5552 5548 5545 5543 5540 5537 5535 5533 5531 5530 5528 5526 5523 5521 5520 5518 5517 5515 5514 5512 5512 5512 5513 5514 5515 5515 5516 5516 5517 5517 5517 5516 5516 5515 5514 5513 5513 5512 5511 5510 5509 5508 5507
5542 5540 5537 5533 5531 5529 5526 5524 5522 5520 5519 5516 5514 5512 5510 5508 5506 5505 5504 5504 5504 5505 5505 5506 5507 5508 5508 5509 5509 5510 5510 5509 5509 5508 5507 5507 5506 5504 5503 5502 5501 5499 5499
5532 5530 5528 5525 5522 5520 5517 5515 5513 5510 5509 5506 5504 5502 5501 5498 5497 5496 5496 5496 5496 5497 5498 5498 5499 5500 5500 5501 5501 5501 5502 5502 5501 5501 5500 5499 5498 5496 5495 5494 5493 5492 5491
5523 5520 5518 5515 5513 5511 5508 5506 5504 5502 5500 5497 5494 5493 5491 5489 5487 5487 5486 5487 5488 5489 5489 5490 5490 5491 5492 5493 5493 5493 5493 5493 5494 5493 5492 5491 5490 5488 5487 5486 5484 5483 5483
5514 5511 5508 5506 5503 5501 5498 5496 5494 5492 5491 5488 5486 5483 5481 5480 5479 5479 5479 5479 5479 5480 5481 5481 5482 5483 5484 5485 5485 5485 5485 5484 5485 5485 5484 5483 5481 5480 5479 5478 5477 5476 5475
5504 5501 5498 5495 5493 5491 5489 5487 5485 5483 5481 5479 5478 5475 5473 5472 5472 5471 5471 5471 5471 5472 5472 5473 5473 5474 5475 5476 5476 5476 5476 5476 5476 5476 5475 5474 5474 5472 5471 5470 5469 5468 5467
5495 5493 5490 5487 5484 5482 5480 5478 5477 5475 5473 5472 5470 5468 5466 5465 5464 5463 5463 5463 5463 5463 5463 5463 5464 5465 5466 5467 5467 5467 5467 5467 5467 5467 5466 5466 5465 5465 5463 5462 5461 5460 5459
5487 5484 5481 5478 5475 5473 5471 5469 5468 5466 5465 5464 5462 5460 5458 5457 5456 5455 5455 5455 5455 5455 5455 5455 5455 5456 5457 5457 5458 5458 5458 5459 5458 5458 5458 5457 5457 5456 5455 5454 5453 5452 5451